CST,Max TemperatureF,Mean TemperatureF,Min TemperatureF,Max Dew PointF,MeanDew PointF,Min DewpointF,Max Humidity, Mean Humidity, Min Humidity, Max Sea Level PressureIn, Mean Sea Level PressureIn, Min Sea Level PressureIn, Max VisibilityMiles, Mean VisibilityMiles, Min VisibilityMiles, Max Wind SpeedMPH, Mean Wind SpeedMPH, Max Gust SpeedMPH,PrecipitationIn, CloudCover, Events, WindDirDegrees
2013-12-1,71,60,48,57,55,46,100,80,57,30.23,30.12,29.99,10,10,5,12,2,16,0.00,4,,227
2013-12-2,82,63,44,57,45,34,100,68,17,29.99,29.84,29.71,10,8,0,16,3,22,0.00,0,Fog-Thunderstorm,260
2013-12-3,82,60,37,46,39,34,93,61,17,29.75,29.70,29.64,10,10,10,10,2,16,0.00,0,,247
2013-12-4,84,64,44,63,51,39,100,73,33,29.82,29.75,29.69,10,9,0,9,1,,0.00,0,Fog,130
2013-12-5,60,45,30,61,32,21,100,75,56,30.17,30.07,29.82,10,8,0,18,9,24,0.00,8,Fog-Rain,9
2013-12-6,32,30,26,30,26,21,93,84,74,30.51,30.32,30.13,10,9,2,16,9,23,0.01,6,Rain,357
2013-12-7,30,27,24,21,19,16,80,73,69,30.53,30.42,30.29,10,10,10,12,7,16,0.00,7,,9
2013-12-8,48,38,28,36,30,21,100,85,62,30.28,30.15,30.04,10,8,1,6,1,,0.00,5,,123
2013-12-9,39,36,32,39,34,28,100,96,87,30.45,30.22,30.09,10,4,0,12,4,,0.00,8,Fog-Snow,29
2013-12-10,46,35,24,28,23,19,87,66,34,30.55,30.44,30.36,10,10,9,14,4,20,0.00,1,,337
2013-12-11,55,42,28,32,28,23,93,64,36,30.61,30.44,30.34,10,10,10,10,2,,0.07,0,,4
2013-12-12,51,38,26,34,30,23,93,71,44,30.63,30.51,30.32,10,10,5,6,1,,0.00,1,,88
2013-12-13,48,44,37,46,40,34,100,85,66,30.32,30.07,29.92,10,6,0,7,3,,0.02,8,Fog-Rain,125
2013-12-14,53,44,33,41,34,28,100,71,41,30.40,30.17,29.90,10,9,2,18,7,25,0.00,1,,321
2013-12-15,60,42,23,30,27,21,93,66,27,30.43,30.36,30.28,10,10,10,7,1,,0.00,0,,253
2013-12-16,69,46,24,34,30,23,93,65,25,30.33,30.27,30.20,10,10,10,8,1,,0.00,0,,241
2013-12-17,73,52,30,36,32,27,100,64,20,30.36,30.30,30.26,10,10,10,6,1,,0.00,0,,185
2013-12-18,69,50,32,50,40,28,93,73,43,30.32,30.21,30.07,10,10,9,14,2,20,0.00,0,,169
2013-12-19,71,61,51,57,54,48,100,75,57,30.06,29.92,29.84,10,10,5,22,8,30,0.00,4,,186
2013-12-20,71,56,41,64,59,39,100,89,69,29.88,29.80,29.67,10,8,0,24,2,31,0.04,4,Fog-Rain,137
2013-12-21,66,52,39,54,40,34,100,74,30,29.85,29.73,29.64,10,9,1,17,6,24,1.35,4,Rain-Thunderstorm,282
2013-12-22,50,41,32,39,33,27,93,73,46,30.42,30.16,29.87,10,10,7,16,7,22,0.00,1,,342
2013-12-23,55,40,24,30,26,19,93,68,26,30.56,30.49,30.42,10,10,10,5,0,,0.00,0,,281
2013-12-24,60,43,26,34,28,23,93,64,29,30.55,30.42,30.28,10,10,10,14,2,18,0.00,0,,155
2013-12-25,60,48,35,45,38,28,100,76,48,30.47,30.34,30.26,10,9,0,13,3,20,0.00,4,Fog,12
2013-12-26,55,44,32,37,34,30,100,77,47,30.48,30.42,30.35,10,9,4,5,1,,0.00,0,,266
2013-12-27,57,48,39,39,36,30,93,66,36,30.48,30.40,30.35,10,10,9,6,0,,0.00,6,,99
2013-12-28,60,50,39,46,42,36,93,75,52,30.35,30.17,30.03,10,10,9,8,1,,0.00,5,,206
2013-12-29,55,44,32,46,40,27,93,81,67,30.36,30.14,29.99,10,10,3,23,6,29,0.00,8,,316
2013-12-30,48,39,30,30,24,21,87,64,37,30.42,30.34,30.29,10,10,10,12,5,16,0.00,2,,335
2013-12-31,59,44,30,32,31,28,93,70,34,30.49,30.37,30.25,10,10,10,9,1,,0.00,0,,126